Regional Weather Roundup
Issued by NWS Charleston, WV

Home | Current Version | Previous Version | Graphics & Text | Print | Product List | Glossary On
Versions: 1 2 3 4 5 6 7 8 9 10 11 12 13 14 15 16 17 18 19 20 21 22 23 24 25 26 27 28 29 30 31 32 33 34 35 36 37 38 39 40 41 42 43 44 45 46 47 48 49 50
000
ASUS41 KRLX 200810
RWRRLX
West Virginia Regional Weather Roundup
National Weather Service Charleston WV
300 AM EST SAT DEC 20 2014

Note: "fair" indicates few or no clouds below 12,000 feet with no
significant weather and/or obstructions to visibility.

WVZ003-200900-
Northern Panhandle of West Virginia

CITY           SKY/WX    TMP DP  RH WIND       PRES   REMARKS
WHEELING       CLOUDY    29  19  66 E3        30.23S
$$

WVZ009-200900-
Northwest West Virginia

CITY           SKY/WX    TMP DP  RH WIND       PRES   REMARKS
PARKERSBURG    CLOUDY    30  22  72 CALM      30.29R
$$

WVZ006-200900-
Western West Virginia

CITY           SKY/WX    TMP DP  RH WIND       PRES   REMARKS
HUNTINGTON     CLOUDY    28  23  81 N3        30.24S
$$

WVZ015-200900-
West Central West Virginia

CITY           SKY/WX    TMP DP  RH WIND       PRES   REMARKS
CHARLESTON     CLOUDY    30  22  72 NE3       30.23F
$$

WVZ022-031-200900-
North Central West Virginia

CITY           SKY/WX    TMP DP  RH WIND       PRES   REMARKS
CLARKSBURG     CLOUDY    28  21  75 E5        30.23S
MORGANTOWN     CLOUDY    29  20  69 CALM      30.23F
$$

WVZ025-035-042-045-200900-
Southern West Virginia

CITY           SKY/WX    TMP DP  RH WIND       PRES   REMARKS
BECKLEY        MOCLDY    24  20  84 CALM      30.13F
LOGAN            N/A     27  23  86 CALM      30.18F
BLUEFIELD      MOCLDY    25  21  85 E5        30.13S
LEWISBURG      MOCLDY    22  20  89 N6        30.16F
$$

WVZ047-200900-
Northern Mountains of West Virginia

CITY           SKY/WX    TMP DP  RH WIND       PRES   REMARKS
ELKINS         CLOUDY    25  21  85 CALM      30.18F
$$

WVZ052-200900-
Eastern Panhandle of West Virginia

CITY           SKY/WX    TMP DP  RH WIND       PRES   REMARKS
MARTINSBURG    CLEAR     22  16  78 CALM      30.26R
PETERSBURG     PTCLDY    22  20  93 CALM      30.26S
$$



USA.gov is the U.S. government's official web portal to all federal, state and local government web resources and services.